Lid_Strength_Index
9 12 14 11 11 10 11 12 13 11 11 13 13 12 10 9 9 10 10 10 9 10 9 8 8 9 10 10 10 9 8 7 7 7 8 8 7 6 4 3 3 3 3 3
11 13 10 9 10 11 11 14 14 11 11 13 13 13 11 10 10 12 12 11 10 9 9 9 9 10 10 11 10 8 7 7 7 7 7 7 6 6 4 3 3 4 4 3
12 11 10 10 12 12 13 14 15 13 12 12 13 14 12 11 12 11 11 11 11 10 10 10 10 11 11 11 9 8 8 7 8 7 7 6 6 4 4 3 4 5 4 3
12 10 11 12 12 12 14 12 12 13 15 18 14 19 15 12 11 12 11 12 12 11 9 10 10 11 11 11 9 8 8 8 8 7 7 7 7 6 5 3 3 4 3 3
12 12 12 13 12 11 13 12 13 14 16 16 17 19 15 11 13 13 13 11 11 11 10 11 11 11 11 10 9 9 8 8 8 8 7 7 6 5 4 4 3 4 4 3
11 10 10 11 11 10 11 13 13 15 16 21 17 17 17 15 13 14 12 12 11 11 11 11 11 11 11 10 9 9 8 8 8 8 7 8 6 6 5 5 4 3 2 2
13 12 11 10 12 11 11 14 19 20 21 20 17 19 16 12 13 13 12 12 12 12 12 12 13 13 12 11 10 9 9 9 8 9 8 7 7 6 6 5 4 4 2 1
17 18 13 11 11 13 13 13 18 22 22 19 18 20 16 12 12 13 11 12 12 12 12 12 13 13 12 11 10 10 9 9 9 8 8 7 7 6 6 5 5 4 3 3
16 16 14 12 11 11 13 16 14 17 21 20 18 16 13 14 13 14 12 12 13 12 12 12 12 13 12 12 10 10 9 10 9 9 9 8 7 7 6 5 5 4 4 3
13 17 15 14 12 12 14 13 18 19 23 22 19 18 16 15 14 14 14 13 13 12 12 13 13 13 13 12 10 10 9 10 9 9 9 8 8 7 7 6 6 6 5 4
13 14 16 15 16 16 15 16 16 15 17 20 20 18 15 15 14 14 14 12 12 12 13 13 13 13 13 12 11 10 10 10 10 9 9 9 8 7 7 6 6 6 6 5
12 13 17 16 15 14 14 15 15 18 19 19 19 19 14 14 15 14 13 11 11 11 12 13 13 14 14 13 12 11 11 10 10 10 9 9 8 7 8 7 7 7 6 6
12 16 19 17 17 16 17 15 15 15 17 19 20 18 14 15 16 14 13 12 11 11 11 12 13 14 15 14 12 12 11 10 10 10 10 10 10 8 9 8 7 8 7 7
11 15 16 18 17 16 18 16 15 16 19 19 17 16 15 15 14 14 14 13 12 12 11 12 13 14 15 14 13 12 11 10 10 10 10 11 10 9 9 9 8 8 8 8
12 17 16 15 15 16 17 17 16 17 15 17 16 15 13 13 13 13 13 12 12 12 12 12 13 13 14 15 14 12 11 10 10 10 10 11 11 10 10 10 9 9 9 9
13 16 16 18 15 15 17 16 16 15 15 15 14 15 11 11 12 13 13 12 12 12 12 12 12 12 13 14 14 12 11 11 10 11 11 11 12 11 11 11 10 10 10 9
14 15 17 18 16 17 18 16 15 15 14 14 16 14 12 12 12 12 12 11 12 12 12 12 12 12 12 13 13 13 11 10 11 11 11 12 13 13 12 12 11 10 10 9
14 14 14 17 17 21 16 14 13 13 17 17 16 15 15 15 14 13 11 11 11 11 11 11 11 12 12 12 13 13 11 11 11 11 11 12 13 13 13 13 12 11 10 10
13 14 15 17 18 16 15 18 18 17 20 18 18 17 17 16 14 13 13 12 11 12 12 11 11 11 12 12 12 13 12 11 12 12 12 12 13 14 15 14 14 14 13 13
12 12 14 16 19 21 20 18 16 16 21 18 18 18 18 16 17 17 15 13 13 13 13 12 12 12 12 12 13 13 13 12 12 12 13 14 14 14 14 15 14 15 16 15
15 14 16 16 17 18 18 16 15 18 21 18 17 18 18 19 17 16 15 15 15 15 15 14 13 12 13 13 13 14 13 12 12 14 14 15 15 15 14 15 16 16 16 17
17 19 19 19 18 20 16 16 20 18 16 17 17 17 18 18 17 17 17 17 17 17 17 16 16 15 14 14 14 14 14 13 13 14 15 15 15 15 15 15 16 17 17 17
18 17 20 18 18 15 15 16 15 15 16 16 16 17 17 18 18 18 18 18 18 18 18 18 18 17 16 16 16 16 14 14 14 15 15 16 17 16 16 16 16 17 17 17
16 16 18 18 15 14 15 14 15 15 16 15 16 16 17 18 18 19 18 19 19 19 19 19 20 20 19 18 17 16 16 15 16 16 16 16 16 17 17 16 16 16 17 17
17 16 16 17 15 14 14 15 16 15 15 16 17 18 18 18 18 19 19 19 19 19 19 19 20 20 20 20 19 18 17 17 17 17 16 16 15 16 16 16 16 15 15 15
14 15 18 18 16 16 15 15 16 17 18 17 19 19 19 19 19 19 20 20 20 20 20 21 21 21 21 21 21 20 19 18 18 17 17 17 16 16 15 15 16 14 14 14